14-07-2022, 00:00:08,    358,    0.0,   12.9,   0.00,   0.00, 1019.4,   56.0, -999.0
14-07-2022, 00:00:18,    358,    0.0,   12.9,   0.00,   0.00, 1019.4,   56.0, -999.0
14-07-2022, 00:00:28,    358,    0.0,   12.9,   0.00,   0.00, 1019.4,   56.1, -999.0
14-07-2022, 00:00:38,    358,    0.0,   12.9,   0.00,   0.00, 1019.4,   56.1, -999.0
14-07-2022, 00:00:48,    358,    0.0,   12.9,   0.00,   0.00, 1019.4,   56.2, -999.0
14-07-2022, 00:00:58,    358,    0.0,   12.8,   0.00,   0.00, 1019.4,   56.1, -999.0
14-07-2022, 00:01:08,    358,    0.0,   12.9,   0.00,   0.00, 1019.4,   56.1, -999.0
14-07-2022, 00:01:18,    358,    0.0,   12.9,   0.00,   0.00, 1019.4,   56.1, -999.0
14-07-2022, 00:01:28,    358,    0.0,   13.0,   0.00,   0.00, 1019.4,   56.2, -999.0
14-07-2022, 00:01:37,    358,    0.0,   13.0,   0.00,   0.00, 1019.4,   56.1, -999.0
14-07-2022, 00:01:48,    358,    0.0,   12.9,   0.00,   0.00, 1019.4,   56.1, -999.0
14-07-2022, 00:01:58,    349,    0.3,   13.0,   0.00,   0.00, 1019.5,   56.2, -999.0
14-07-2022, 00:02:07,    350,    1.5,   13.0,   0.00,   0.00, 1019.5,   56.3, -999.0
14-07-2022, 00:02:17,    350,    0.6,   13.1,   0.00,   0.00, 1019.5,   56.3, -999.0
14-07-2022, 00:02:27,    350,    0.5,   13.1,   0.00,   0.00, 1019.5,   56.3, -999.0
14-07-2022, 00:02:37,    349,    0.0,   13.1,   0.00,   0.00, 1019.4,   55.9, -999.0
14-07-2022, 00:02:47,    349,    0.0,   13.0,   0.00,   0.00, 1019.4,   55.8, -999.0
14-07-2022, 00:02:57,    349,    0.0,   13.0,   0.00,   0.00, 1019.4,   55.9, -999.0
14-07-2022, 00:03:07,    349,    0.0,   13.0,   0.00,   0.00, 1019.4,   56.0, -999.0
14-07-2022, 00:03:17,    349,    0.0,   13.0,   0.00,   0.00, 1019.4,   56.0, -999.0
14-07-2022, 00:03:27,    349,    0.0,   13.0,   0.00,   0.00, 1019.4,   56.0, -999.0
14-07-2022, 00:03:37,    349,    0.0,   13.0,   0.00,   0.00, 1019.4,   56.1, -999.0
14-07-2022, 00:03:47,    349,    0.0,   12.9,   0.00,   0.00, 1019.4,   56.0, -999.0
14-07-2022, 00:03:57,      0,    0.0,   12.9,   0.00,   0.00, 1019.4,   56.1, -999.0
14-07-2022, 00:04:06,    336,    0.1,   13.0,   0.00,   0.00, 1019.5,   56.2, -999.0
14-07-2022, 00:04:17,      0,    0.2,   13.0,   0.00,   0.00, 1019.4,   56.3, -999.0
14-07-2022, 00:04:27,      0,    0.0,   13.0,   0.00,   0.00, 1019.4,   55.9, -999.0
14-07-2022, 00:04:36,      0,    0.0,   13.0,   0.00,   0.00, 1019.4,   55.9, -999.0
14-07-2022, 00:04:46,      0,    0.0,   13.0,   0.00,   0.00, 1019.4,   56.1, -999.0
14-07-2022, 00:04:57,      0,    0.0,   13.0,   0.00,   0.00, 1019.4,   56.0, -999.0
14-07-2022, 00:05:06,      0,    0.0,   13.0,   0.00,   0.00, 1019.4,   55.9, -999.0
14-07-2022, 00:05:16,      0,    0.0,   13.0,   0.00,   0.00, 1019.4,   56.0, -999.0
14-07-2022, 00:05:26,    343,    1.0,   13.0,   0.00,   0.00, 1019.5,   56.1, -999.0
14-07-2022, 00:05:36,    351,    1.2,   13.0,   0.00,   0.00, 1019.5,   56.2, -999.0
14-07-2022, 00:05:46,    350,    0.7,   13.0,   0.00,   0.00, 1019.5,   56.2, -999.0
14-07-2022, 00:05:56,    350,    0.0,   13.0,   0.00,   0.00, 1019.4,   55.9, -999.0
14-07-2022, 00:06:06,    350,    0.0,   12.9,   0.00,   0.00, 1019.4,   56.1, -999.0
14-07-2022, 00:06:16,    350,    0.0,   13.0,   0.00,   0.00, 1019.4,   56.0, -999.0
14-07-2022, 00:06:26,    351,    0.0,   12.9,   0.00,   0.00, 1019.4,   56.0, -999.0
14-07-2022, 00:06:36,    350,    0.0,   12.9,   0.00,   0.00, 1019.3,   56.0, -999.0
14-07-2022, 00:06:46,    350,    0.0,   13.0,   0.00,   0.00, 1019.3,   56.0, -999.0
14-07-2022, 00:06:56,    350,    0.0,   13.0,   0.00,   0.00, 1019.4,   56.0, -999.0
14-07-2022, 00:07:06,    351,    0.0,   13.0,   0.00,   0.00, 1019.4,   56.1, -999.0
14-07-2022, 00:07:15,    350,    0.0,   13.0,   0.00,   0.00, 1019.4,   56.3, -999.0
14-07-2022, 00:07:26,    351,    0.0,   13.0,   0.00,   0.00, 1019.4,   56.2, -999.0
14-07-2022, 00:07:35,    351,    0.0,   13.0,   0.00,   0.00, 1019.4,   56.2, -999.0
14-07-2022, 00:07:45,    351,    0.0,   12.9,   0.00,   0.00, 1019.4,   56.1, -999.0
14-07-2022, 00:07:56,    354,    0.0,   12.8,   0.00,   0.00, 1019.4,   56.3, -999.0
14-07-2022, 00:08:05,    354,    0.0,   12.8,   0.00,   0.00, 1019.4,   56.3, -999.0
14-07-2022, 00:08:15,    355,    0.0,   12.9,   0.00,   0.00, 1019.4,   56.4, -999.0
14-07-2022, 00:08:25,    354,    0.0,   12.9,   0.00,   0.00, 1019.4,   56.3, -999.0
14-07-2022, 00:08:35,    355,    0.0,   12.9,   0.00,   0.00, 1019.4,   56.4, -999.0
14-07-2022, 00:08:45,    354,    0.0,   12.9,   0.00,   0.00, 1019.4,   56.4, -999.0
14-07-2022, 00:08:55,    354,    0.0,   12.9,   0.00,   0.00, 1019.4,   56.4, -999.0
14-07-2022, 00:09:05,    354,    0.0,   12.9,   0.00,   0.00, 1019.4,   56.3, -999.0
14-07-2022, 00:09:15,    354,    0.0,   12.9,   0.00,   0.00, 1019.4,   56.4, -999.0
14-07-2022, 00:09:25,    354,    0.0,   12.8,   0.00,   0.00, 1019.4,   56.4, -999.0
14-07-2022, 00:09:35,    354,    0.0,   12.8,   0.00,   0.00, 1019.3,   56.5, -999.0
14-07-2022, 00:09:45,    354,    0.0,   12.8,   0.00,   0.00, 1019.3,   56.4, -999.0
14-07-2022, 00:09:55,      0,    0.0,   12.8,   0.00,   0.00, 1019.4,   56.7, -999.0
14-07-2022, 00:10:05,      0,    0.0,   12.8,   0.00,   0.00, 1019.3,   56.6, -999.0
14-07-2022, 00:10:14,      6,    0.0,   12.8,   0.00,   0.00, 1019.4,   56.5, -999.0
14-07-2022, 00:10:25,      0,    0.0,   12.9,   0.00,   0.00, 1019.3,   56.5, -999.0
14-07-2022, 00:10:34,      0,    0.0,   12.9,   0.00,   0.00, 1019.3,   56.6, -999.0
14-07-2022, 00:10:44,    357,    0.0,   13.0,   0.00,   0.00, 1019.3,   56.4, -999.0
14-07-2022, 00:10:54,    357,    0.0,   13.0,   0.00,   0.00, 1019.3,   56.4, -999.0
14-07-2022, 00:11:04,    357,    0.0,   12.9,   0.00,   0.00, 1019.3,   56.3, -999.0
14-07-2022, 00:11:14,    357,    0.0,   12.9,   0.00,   0.00, 1019.3,   56.4, -999.0
14-07-2022, 00:11:24,    357,    0.0,   13.0,   0.00,   0.00, 1019.3,   56.3, -999.0
14-07-2022, 00:11:34,    357,    0.0,   13.0,   0.00,   0.00, 1019.3,   56.3, -999.0
14-07-2022, 00:11:44,    358,    0.0,   13.0,   0.00,   0.00, 1019.3,   56.3, -999.0
14-07-2022, 00:11:54,    358,    0.0,   13.0,   0.00,   0.00, 1019.3,   56.3, -999.0
14-07-2022, 00:12:04,    358,    0.0,   13.0,   0.00,   0.00, 1019.3,   56.3, -999.0
14-07-2022, 00:12:14,    358,    0.0,   12.9,   0.00,   0.00, 1019.3,   56.3, -999.0
14-07-2022, 00:12:24,    358,    0.0,   13.0,   0.00,   0.00, 1019.3,   56.2, -999.0
14-07-2022, 00:12:34,    358,    0.0,   13.0,   0.00,   0.00, 1019.3,   56.2, -999.0
14-07-2022, 00:12:43,    358,    0.0,   13.0,   0.00,   0.00, 1019.3,   56.2, -999.0
14-07-2022, 00:12:54,    358,    0.0,   13.0,   0.00,   0.00, 1019.3,   56.2, -999.0
14-07-2022, 00:13:04,    358,    0.0,   13.0,   0.00,   0.00, 1019.3,   56.3, -999.0
14-07-2022, 00:13:13,    358,    0.0,   13.0,   0.00,   0.00, 1019.3,   56.3, -999.0
14-07-2022, 00:13:23,    358,    0.0,   12.9,   0.00,   0.00, 1019.3,   56.4, -999.0
14-07-2022, 00:13:34,    358,    0.0,   12.9,   0.00,   0.00, 1019.3,   56.3, -999.0
14-07-2022, 00:13:43,    358,    0.0,   12.9,   0.00,   0.00, 1019.3,   56.5, -999.0
14-07-2022, 00:13:53,    358,    0.0,   12.8,   0.00,   0.00, 1019.3,   56.5, -999.0
14-07-2022, 00:14:03,    358,    0.0,   12.8,   0.00,   0.00, 1019.3,   56.4, -999.0
14-07-2022, 00:14:13,    358,    0.0,   12.9,   0.00,   0.00, 1019.3,   56.5, -999.0
14-07-2022, 00:14:23,    359,    0.0,   12.9,   0.00,   0.00, 1019.3,   56.7, -999.0
14-07-2022, 00:14:33,    358,    0.0,   12.9,   0.00,   0.00, 1019.3,   56.6, -999.0
14-07-2022, 00:14:43,    358,    0.0,   12.8,   0.00,   0.00, 1019.3,   56.6, -999.0
14-07-2022, 00:14:53,    358,    0.0,   12.8,   0.00,   0.00, 1019.3,   56.6, -999.0
14-07-2022, 00:15:03,    358,    0.0,   12.8,   0.00,   0.00, 1019.3,   56.7, -999.0
14-07-2022, 00:15:13,    358,    0.0,   12.8,   0.00,   0.00, 1019.3,   56.7, -999.0
14-07-2022, 00:15:23,    358,    0.0,   12.8,   0.00,   0.00, 1019.3,   56.7, -999.0
14-07-2022, 00:15:33,    358,    0.0,   12.8,   0.00,   0.00, 1019.3,   56.7, -999.0
14-07-2022, 00:15:42,    358,    0.0,   12.8,   0.00,   0.00, 1019.3,   56.8, -999.0
14-07-2022, 00:15:53,    358,    0.0,   12.8,   0.00,   0.00, 1019.3,   56.8, -999.0
14-07-2022, 00:16:03,    358,    0.0,   12.7,   0.00,   0.00, 1019.3,   56.8, -999.0
14-07-2022, 00:16:12,    358,    0.0,   12.8,   0.00,   0.00, 1019.3,   56.7, -999.0
14-07-2022, 00:16:22,    358,    0.0,   12.8,   0.00,   0.00, 1019.3,   56.8, -999.0
14-07-2022, 00:16:33,    358,    0.0,   12.8,   0.00,   0.00, 1019.3,   56.8, -999.0
14-07-2022, 00:16:42,    358,    0.0,   12.8,   0.00,   0.00, 1019.3,   56.9, -999.0
14-07-2022, 00:16:52,    358,    0.0,   12.8,   0.00,   0.00, 1019.2,   56.9, -999.0
14-07-2022, 00:17:02,    358,    0.0,   12.8,   0.00,   0.00, 1019.3,   56.9, -999.0
14-07-2022, 00:17:12,    358,    0.0,   12.7,   0.00,   0.00, 1019.3,   56.9, -999.0
14-07-2022, 00:17:22,    359,    0.0,   12.8,   0.00,   0.00, 1019.2,   56.8, -999.0
14-07-2022, 00:17:32,    358,    0.0,   12.7,   0.00,   0.00, 1019.2,   56.8, -999.0
14-07-2022, 00:17:42,    358,    0.0,   12.8,   0.00,   0.00, 1019.3,   56.9, -999.0
14-07-2022, 00:17:52,    358,    0.0,   12.8,   0.00,   0.00, 1019.3,   56.9, -999.0
14-07-2022, 00:18:02,    358,    0.0,   12.7,   0.00,   0.00, 1019.3,   56.8, -999.0
14-07-2022, 00:18:12,    358,    0.0,   12.8,   0.00,   0.00, 1019.2,   56.9, -999.0
14-07-2022, 00:18:22,    358,    0.0,   12.9,   0.00,   0.00, 1019.2,   57.0, -999.0
14-07-2022, 00:18:32,    358,    0.0,   12.8,   0.00,   0.00, 1019.2,   56.9, -999.0
14-07-2022, 00:18:42,    358,    0.0,   12.8,   0.00,   0.00, 1019.2,   56.8, -999.0
14-07-2022, 00:18:51,    358,    0.0,   12.8,   0.00,   0.00, 1019.2,   56.9, -999.0
14-07-2022, 00:19:02,    358,    0.0,   12.8,   0.00,   0.00, 1019.2,   57.0, -999.0
14-07-2022, 00:19:11,    358,    0.0,   12.7,   0.00,   0.00, 1019.2,   57.0, -999.0
14-07-2022, 00:19:21,    358,    0.0,   12.9,   0.00,   0.00, 1019.2,   56.9, -999.0
14-07-2022, 00:19:31,    358,    0.0,   12.9,   0.00,   0.00, 1019.3,   57.0, -999.0
14-07-2022, 00:19:41,    358,    0.0,   12.9,   0.00,   0.00, 1019.3,   57.1, -999.0
14-07-2022, 00:19:51,      2,    0.0,   12.8,   0.00,   0.00, 1019.2,   56.9, -999.0
14-07-2022, 00:20:01,      2,    0.0,   12.7,   0.00,   0.00, 1019.2,   56.9, -999.0
14-07-2022, 00:20:11,      3,    0.0,   12.7,   0.00,   0.00, 1019.2,   56.8, -999.0
14-07-2022, 00:20:21,      3,    0.0,   12.7,   0.00,   0.00, 1019.2,   57.0, -999.0
14-07-2022, 00:20:31,      3,    0.0,   12.8,   0.00,   0.00, 1019.2,   57.0, -999.0
14-07-2022, 00:20:41,      3,    0.0,   12.8,   0.00,   0.00, 1019.2,   57.2, -999.0
14-07-2022, 00:20:51,      4,    0.0,   12.8,   0.00,   0.00, 1019.2,   57.1, -999.0
14-07-2022, 00:21:01,      3,    0.0,   12.8,   0.00,   0.00, 1019.2,   57.1, -999.0
14-07-2022, 00:21:11,      4,    0.0,   12.8,   0.00,   0.00, 1019.2,   57.1, -999.0
14-07-2022, 00:21:20,      4,    0.0,   12.8,   0.00,   0.00, 1019.2,   57.2, -999.0
14-07-2022, 00:21:31,      0,    0.0,   12.8,   0.00,   0.00, 1019.2,   57.0, -999.0
14-07-2022, 00:21:41,      3,    0.0,   12.7,   0.00,   0.00, 1019.2,   57.1, -999.0
14-07-2022, 00:21:50,      3,    0.0,   12.7,   0.00,   0.00, 1019.2,   57.2, -999.0
14-07-2022, 00:22:00,      4,    0.0,   12.7,   0.00,   0.00, 1019.2,   57.2, -999.0
14-07-2022, 00:22:10,      5,    0.0,   12.7,   0.00,   0.00, 1019.2,   57.4, -999.0
14-07-2022, 00:22:20,     13,    0.0,   12.7,   0.00,   0.00, 1019.2,   57.2, -999.0
14-07-2022, 00:22:30,      0,    0.0,   12.9,   0.00,   0.00, 1019.2,   57.3, -999.0
14-07-2022, 00:22:40,      4,    0.0,   12.9,   0.00,   0.00, 1019.2,   57.3, -999.0
14-07-2022, 00:22:50,      5,    0.0,   12.9,   0.00,   0.00, 1019.2,   57.4, -999.0
14-07-2022, 00:23:00,      3,    0.0,   12.9,   0.00,   0.00, 1019.2,   57.2, -999.0
14-07-2022, 00:23:10,      3,    0.0,   12.9,   0.00,   0.00, 1019.2,   57.2, -999.0
14-07-2022, 00:23:20,      3,    0.0,   12.9,   0.00,   0.00, 1019.2,   57.0, -999.0
14-07-2022, 00:23:30,      3,    0.0,   12.9,   0.00,   0.00, 1019.2,   57.0, -999.0
14-07-2022, 00:23:40,      3,    0.0,   12.8,   0.00,   0.00, 1019.2,   57.0, -999.0
14-07-2022, 00:23:50,      5,    0.0,   12.8,   0.00,   0.00, 1019.2,   56.9, -999.0
14-07-2022, 00:24:00,     13,    0.0,   12.8,   0.00,   0.00, 1019.2,   57.1, -999.0
14-07-2022, 00:24:10,      4,    0.0,   12.8,   0.00,   0.00, 1019.2,   57.1, -999.0
14-07-2022, 00:24:19,      3,    0.0,   12.8,   0.00,   0.00, 1019.2,   57.1, -999.0
14-07-2022, 00:24:29,      3,    0.0,   12.8,   0.00,   0.00, 1019.2,   57.2, -999.0
14-07-2022, 00:24:40,      5,    0.0,   12.8,   0.00,   0.00, 1019.2,   57.3, -999.0
14-07-2022, 00:24:49,      5,    0.0,   12.8,   0.00,   0.00, 1019.2,   57.3, -999.0
14-07-2022, 00:24:59,      4,    0.0,   12.8,   0.00,   0.00, 1019.2,   57.2, -999.0
14-07-2022, 00:25:10,      5,    0.0,   12.8,   0.00,   0.00, 1019.2,   57.2, -999.0
14-07-2022, 00:25:19,      4,    0.0,   12.8,   0.00,   0.00, 1019.2,   57.2, -999.0
14-07-2022, 00:25:29,      3,    0.0,   12.8,   0.00,   0.00, 1019.2,   57.2, -999.0
14-07-2022, 00:25:39,      4,    0.0,   12.8,   0.00,   0.00, 1019.2,   57.3, -999.0
14-07-2022, 00:25:49,      3,    0.0,   12.8,   0.00,   0.00, 1019.2,   57.3, -999.0
14-07-2022, 00:25:59,      3,    0.0,   12.8,   0.00,   0.00, 1019.2,   57.4, -999.0
14-07-2022, 00:26:09,      5,    0.0,   12.7,   0.00,   0.00, 1019.2,   57.4, -999.0
14-07-2022, 00:26:19,      3,    0.0,   12.7,   0.00,   0.00, 1019.2,   57.4, -999.0
14-07-2022, 00:26:29,      3,    0.0,   12.8,   0.00,   0.00, 1019.2,   57.3, -999.0
14-07-2022, 00:26:39,      3,    0.0,   12.7,   0.00,   0.00, 1019.2,   57.3, -999.0
14-07-2022, 00:26:49,      3,    0.0,   12.7,   0.00,   0.00, 1019.2,   57.4, -999.0
14-07-2022, 00:26:59,      5,    0.0,   12.8,   0.00,   0.00, 1019.2,   57.3, -999.0
14-07-2022, 00:27:09,     10,    0.0,   12.6,   0.00,   0.00, 1019.2,   57.4, -999.0
14-07-2022, 00:27:19,      7,    0.0,   12.7,   0.00,   0.00, 1019.3,   57.3, -999.0
14-07-2022, 00:27:28,      0,    0.0,   12.7,   0.00,   0.00, 1019.3,   57.3, -999.0
14-07-2022, 00:27:39,      6,    0.0,   12.7,   0.00,   0.00, 1019.2,   57.4, -999.0
14-07-2022, 00:27:48,      7,    0.0,   12.7,   0.00,   0.00, 1019.2,   57.4, -999.0
14-07-2022, 00:27:58,      6,    0.0,   12.7,   0.00,   0.00, 1019.2,   57.6, -999.0
14-07-2022, 00:28:08,      7,    0.0,   12.6,   0.00,   0.00, 1019.2,   57.5, -999.0
14-07-2022, 00:28:18,      6,    0.0,   12.6,   0.00,   0.00, 1019.2,   57.6, -999.0
14-07-2022, 00:28:28,      6,    0.0,   12.6,   0.00,   0.00, 1019.3,   57.6, -999.0
14-07-2022, 00:28:38,     15,    0.0,   12.6,   0.00,   0.00, 1019.2,   57.6, -999.0
14-07-2022, 00:28:48,      0,    0.0,   12.6,   0.00,   0.00, 1019.3,   57.7, -999.0
14-07-2022, 00:28:58,      6,    0.0,   12.6,   0.00,   0.00, 1019.3,   57.6, -999.0
14-07-2022, 00:29:08,      5,    0.0,   12.5,   0.00,   0.00, 1019.3,   57.7, -999.0
14-07-2022, 00:29:18,      2,    0.0,   12.6,   0.00,   0.00, 1019.2,   57.6, -999.0
14-07-2022, 00:29:28,      0,    0.0,   12.6,   0.00,   0.00, 1019.3,   57.6, -999.0
14-07-2022, 00:29:38,      7,    0.0,   12.6,   0.00,   0.00, 1019.3,   57.7, -999.0
14-07-2022, 00:29:48,      7,    0.0,   12.6,   0.00,   0.00, 1019.3,   57.7, -999.0
14-07-2022, 00:29:57,      7,    0.0,   12.5,   0.00,   0.00, 1019.3,   57.7, -999.0
14-07-2022, 00:30:08,      7,    0.0,   12.5,   0.00,   0.00, 1019.3,   57.9, -999.0
14-07-2022, 00:30:18,      5,    0.0,   12.5,   0.00,   0.00, 1019.3,   57.8, -999.0
14-07-2022, 00:30:27,      4,    0.0,   12.5,   0.00,   0.00, 1019.3,   57.8, -999.0
14-07-2022, 00:30:37,      6,    0.0,   12.3,   0.00,   0.00, 1019.2,   57.7, -999.0
14-07-2022, 00:30:48,      8,    0.0,   12.5,   0.00,   0.00, 1019.3,   57.9, -999.0
14-07-2022, 00:30:57,      8,    0.0,   12.5,   0.00,   0.00, 1019.2,   57.8, -999.0
14-07-2022, 00:31:07,      7,    0.0,   12.5,   0.00,   0.00, 1019.3,   58.0, -999.0
14-07-2022, 00:31:17,      8,    0.0,   12.5,   0.00,   0.00, 1019.2,   57.9, -999.0
14-07-2022, 00:31:27,      7,    0.0,   12.4,   0.00,   0.00, 1019.3,   57.9, -999.0
14-07-2022, 00:31:37,     11,    0.0,   12.4,   0.00,   0.00, 1019.2,   58.0, -999.0
14-07-2022, 00:31:47,      7,    0.0,   12.4,   0.00,   0.00, 1019.3,   58.0, -999.0
14-07-2022, 00:31:57,      8,    0.0,   12.5,   0.00,   0.00, 1019.2,   58.1, -999.0
14-07-2022, 00:32:07,      6,    0.0,   12.5,   0.00,   0.00, 1019.3,   58.1, -999.0
14-07-2022, 00:32:17,      9,    0.0,   12.5,   0.00,   0.00, 1019.3,   58.2, -999.0
14-07-2022, 00:32:27,      5,    0.0,   12.5,   0.00,   0.00, 1019.2,   58.0, -999.0
14-07-2022, 00:32:37,      4,    0.0,   12.5,   0.00,   0.00, 1019.2,   58.1, -999.0
14-07-2022, 00:32:47,      0,    0.0,   12.5,   0.00,   0.00, 1019.2,   58.1, -999.0
14-07-2022, 00:32:56,      4,    0.0,   12.6,   0.00,   0.00, 1019.2,   58.2, -999.0
14-07-2022, 00:33:06,      2,    0.0,   12.5,   0.00,   0.00, 1019.2,   58.2, -999.0
14-07-2022, 00:33:17,      4,    0.0,   12.5,   0.00,   0.00, 1019.2,   58.1, -999.0
14-07-2022, 00:33:26,      5,    0.0,   12.5,   0.00,   0.00, 1019.2,   58.0, -999.0
14-07-2022, 00:33:36,      6,    0.0,   12.5,   0.00,   0.00, 1019.2,   58.0, -999.0
14-07-2022, 00:33:46,      7,    0.0,   12.5,   0.00,   0.00, 1019.3,   58.2, -999.0
14-07-2022, 00:33:56,      7,    0.0,   12.6,   0.00,   0.00, 1019.2,   58.2, -999.0
14-07-2022, 00:34:06,      6,    0.0,   12.5,   0.00,   0.00, 1019.3,   58.1, -999.0
14-07-2022, 00:34:16,      5,    0.0,   12.5,   0.00,   0.00, 1019.3,   58.1, -999.0
14-07-2022, 00:34:26,     14,    0.0,   12.5,   0.00,   0.00, 1019.3,   57.9, -999.0
14-07-2022, 00:34:36,      3,    0.0,   12.5,   0.00,   0.00, 1019.3,   58.0, -999.0
14-07-2022, 00:34:46,      0,    0.0,   12.5,   0.00,   0.00, 1019.3,   58.0, -999.0
14-07-2022, 00:34:56,      5,    0.0,   12.5,   0.00,   0.00, 1019.2,   58.0, -999.0
14-07-2022, 00:35:06,      5,    0.0,   12.5,   0.00,   0.00, 1019.2,   58.1, -999.0
14-07-2022, 00:35:16,      6,    0.0,   12.5,   0.00,   0.00, 1019.2,   58.1, -999.0
14-07-2022, 00:35:26,      5,    0.0,   12.6,   0.00,   0.00, 1019.2,   58.1, -999.0
14-07-2022, 00:35:35,      4,    0.0,   12.6,   0.00,   0.00, 1019.3,   58.1, -999.0
14-07-2022, 00:35:46,      4,    0.0,   12.6,   0.00,   0.00, 1019.3,   58.0, -999.0
14-07-2022, 00:35:56,      4,    0.0,   12.6,   0.00,   0.00, 1019.2,   58.1, -999.0
14-07-2022, 00:36:05,      4,    0.0,   12.6,   0.00,   0.00, 1019.2,   58.0, -999.0
14-07-2022, 00:36:16,      4,    0.0,   12.5,   0.00,   0.00, 1019.2,   58.0, -999.0
14-07-2022, 00:36:25,      4,    0.0,   12.5,   0.00,   0.00, 1019.3,   58.0, -999.0
14-07-2022, 00:36:35,      6,    0.0,   12.5,   0.00,   0.00, 1019.3,   58.2, -999.0
14-07-2022, 00:36:45,     15,    0.0,   12.4,   0.00,   0.00, 1019.3,   58.1, -999.0
14-07-2022, 00:36:55,      5,    0.0,   12.6,   0.00,   0.00, 1019.3,   58.1, -999.0
14-07-2022, 00:37:05,     10,    0.0,   12.6,   0.00,   0.00, 1019.2,   58.2, -999.0
14-07-2022, 00:37:15,      1,    0.0,   12.5,   0.00,   0.00, 1019.2,   58.3, -999.0
14-07-2022, 00:37:25,      6,    0.0,   12.6,   0.00,   0.00, 1019.3,   58.2, -999.0
14-07-2022, 00:37:35,      6,    0.0,   12.5,   0.00,   0.00, 1019.2,   58.2, -999.0
14-07-2022, 00:37:45,     15,    0.0,   12.4,   0.00,   0.00, 1019.3,   58.3, -999.0
14-07-2022, 00:37:55,      0,    0.0,   12.5,   0.00,   0.00, 1019.3,   58.1, -999.0
14-07-2022, 00:38:05,      6,    0.0,   12.5,   0.00,   0.00, 1019.2,   58.2, -999.0
14-07-2022, 00:38:15,      6,    0.0,   12.5,   0.00,   0.00, 1019.3,   58.3, -999.0
14-07-2022, 00:38:25,      4,    0.0,   12.4,   0.00,   0.00, 1019.3,   58.2, -999.0
14-07-2022, 00:38:34,      5,    0.0,   12.4,   0.00,   0.00, 1019.3,   58.3, -999.0
14-07-2022, 00:38:45,      6,    0.0,   12.5,   0.00,   0.00, 1019.2,   58.4, -999.0
14-07-2022, 00:38:55,      6,    0.0,   12.4,   0.00,   0.00, 1019.2,   58.3, -999.0
14-07-2022, 00:39:04,      5,    0.0,   12.4,   0.00,   0.00, 1019.3,   58.5, -999.0
14-07-2022, 00:39:14,      5,    0.0,   12.4,   0.00,   0.00, 1019.2,   58.4, -999.0
14-07-2022, 00:39:26,     10,    0.0,   12.4,   0.00,   0.00, 1019.3,   58.4, -999.0
14-07-2022, 00:39:34,      6,    0.0,   12.5,   0.00,   0.00, 1019.2,   58.3, -999.0
14-07-2022, 00:39:44,      6,    0.0,   12.3,   0.00,   0.00, 1019.2,   58.4, -999.0
14-07-2022, 00:39:54,      6,    0.0,   12.5,   0.00,   0.00, 1019.3,   58.5, -999.0
14-07-2022, 00:40:04,      0,    0.0,   12.4,   0.00,   0.00, 1019.2,   58.4, -999.0
14-07-2022, 00:40:14,      4,    0.0,   12.3,   0.00,   0.00, 1019.2,   58.4, -999.0
14-07-2022, 00:40:24,      6,    0.0,   12.4,   0.00,   0.00, 1019.2,   58.4, -999.0
14-07-2022, 00:40:34,      5,    0.0,   12.4,   0.00,   0.00, 1019.2,   58.5, -999.0
14-07-2022, 00:40:44,      7,    0.0,   12.4,   0.00,   0.00, 1019.2,   58.5, -999.0
14-07-2022, 00:40:54,      8,    0.0,   12.4,   0.00,   0.00, 1019.2,   58.6, -999.0
14-07-2022, 00:41:04,      5,    0.0,   12.3,   0.00,   0.00, 1019.2,   58.6, -999.0
14-07-2022, 00:41:14,      4,    0.0,   12.4,   0.00,   0.00, 1019.2,   58.5, -999.0
14-07-2022, 00:41:24,      4,    0.0,   12.4,   0.00,   0.00, 1019.2,   58.6, -999.0
14-07-2022, 00:41:33,      4,    0.0,   12.4,   0.00,   0.00, 1019.2,   58.5, -999.0
14-07-2022, 00:41:43,      5,    0.0,   12.4,   0.00,   0.00, 1019.2,   58.4, -999.0
14-07-2022, 00:41:54,      4,    0.0,   12.4,   0.00,   0.00, 1019.2,   58.6, -999.0
14-07-2022, 00:42:03,      5,    0.0,   12.4,   0.00,   0.00, 1019.2,   58.7, -999.0
14-07-2022, 00:42:13,     13,    0.0,   12.4,   0.00,   0.00, 1019.2,   58.7, -999.0
14-07-2022, 00:42:23,      3,    0.0,   12.4,   0.00,   0.00, 1019.2,   58.8, -999.0
14-07-2022, 00:42:33,      2,    0.0,   12.5,   0.00,   0.00, 1019.2,   58.8, -999.0
14-07-2022, 00:42:43,      3,    0.0,   12.5,   0.00,   0.00, 1019.2,   58.6, -999.0
14-07-2022, 00:42:53,     12,    0.0,   12.5,   0.00,   0.00, 1019.2,   58.5, -999.0
14-07-2022, 00:43:03,      2,    0.0,   12.4,   0.00,   0.00, 1019.2,   58.5, -999.0
14-07-2022, 00:43:13,      3,    0.0,   12.5,   0.00,   0.00, 1019.2,   58.6, -999.0
14-07-2022, 00:43:23,      2,    0.0,   12.5,   0.00,   0.00, 1019.2,   58.5, -999.0
14-07-2022, 00:43:33,     11,    0.0,   12.5,   0.00,   0.00, 1019.2,   58.5, -999.0
14-07-2022, 00:43:43,      0,    0.0,   12.5,   0.00,   0.00, 1019.2,   58.5, -999.0
14-07-2022, 00:43:53,      4,    0.0,   12.6,   0.00,   0.00, 1019.2,   58.6, -999.0
14-07-2022, 00:44:03,      2,    0.0,   12.6,   0.00,   0.00, 1019.2,   58.6, -999.0
14-07-2022, 00:44:12,      3,    0.0,   12.6,   0.00,   0.00, 1019.2,   58.4, -999.0
14-07-2022, 00:44:23,      2,    0.0,   12.6,   0.00,   0.00, 1019.2,   58.4, -999.0
14-07-2022, 00:44:33,      1,    0.0,   12.5,   0.00,   0.00, 1019.2,   58.3, -999.0
14-07-2022, 00:44:42,      2,    0.0,   12.5,   0.00,   0.00, 1019.2,   58.3, -999.0
14-07-2022, 00:44:53,      3,    0.0,   12.5,   0.00,   0.00, 1019.2,   58.4, -999.0
14-07-2022, 00:45:02,      3,    0.0,   12.4,   0.00,   0.00, 1019.2,   58.5, -999.0
14-07-2022, 00:45:12,      3,    0.0,   12.4,   0.00,   0.00, 1019.2,   58.5, -999.0
14-07-2022, 00:45:22,      1,    0.0,   12.4,   0.00,   0.00, 1019.2,   58.5, -999.0
14-07-2022, 00:45:32,      0,    0.0,   12.4,   0.00,   0.00, 1019.1,   58.4, -999.0
14-07-2022, 00:45:42,      0,    0.0,   12.4,   0.00,   0.00, 1019.2,   58.5, -999.0
14-07-2022, 00:45:52,      0,    0.0,   12.4,   0.00,   0.00, 1019.2,   58.6, -999.0
14-07-2022, 00:46:02,      0,    0.0,   12.4,   0.00,   0.00, 1019.1,   58.7, -999.0
14-07-2022, 00:46:12,      1,    0.0,   12.4,   0.00,   0.00, 1019.1,   58.6, -999.0
14-07-2022, 00:46:22,      0,    0.0,   12.4,   0.00,   0.00, 1019.2,   58.7, -999.0
14-07-2022, 00:46:32,      1,    0.0,   12.4,   0.00,   0.00, 1019.1,   58.7, -999.0
14-07-2022, 00:46:42,      0,    0.0,   12.4,   0.00,   0.00, 1019.1,   58.7, -999.0